User: anonymous   Login
Location: Caltech
(34.1382°N, 118.1253°W)
Time: 05:29:41
(UTC-08:00)
Language:

PAYLOAD A - Orbit

View from above orbital plane
View from above orbital plane
View from above satellite
View from above satellite

Ground track
Ground track

The orbit data is extracted from the following two-line orbital elements,

1 27840U 03031A   18022.90727112 -.00000017 +00000-0 +81859-5 0  9995
2 27840 098.2205 016.1101 0098297 176.1230 184.0742 14.38896439764811
Epoch (UTC): 22 January 2018 21:46:28
Eccentricity: 0.0098297
inclination: 98.2205°
perigee height: 692 km
apogee height: 832 km
right ascension of ascending node: 16.1101°
argument of perigee: 176.1230°
revolutions per day: 14.38896439
mean anomaly at epoch: 184.0742°
orbit number at epoch: 76481

The dashed part of the orbit path shows where the satellite is in the earth's shadow,  

DLR